[[{"header":{"parameterUnit":"m.s-1","parameterCategory":1,"la1":30.2992,"la2":30.254,"lo1":-89.0895,"lo2":-89.0443,"dy":0.0025,"dx":0.0025,"nx":19,"ny":19,"refTime":"2026-03-30T09:00:00:Z","depth":0,"parameterNumber":2,"parameterNumberName":"U-component_of_WINDS"},"data":[0,0,0,-5.6944,-5.6946,-5.7028,-5.7028,-5.7171,-5.7172,0,0,0,0,0,0,0,0,0,0,0,-5.6943,-5.6945,-5.6944,-5.6947,-5.7028,-5.7028,-5.717,-5.7172,0,0,0,0,0,0,0,0,0,0,0,-5.6942,-5.6944,-5.6946,-5.6947,-5.7028,-5.7028,-5.717,-5.7095,0,0,0,0,0,0,0,0,0,0,-5.701,-5.703,-5.6944,-5.6946,-5.6948,-5.7028,-5.7028,-5.7091,-5.71,-5.715,0,-5.7201,0,-5.7189,-5.7184,-5.7185,0,0,0,-5.693,-5.7023,-5.7024,-5.6947,-5.6949,-5.7028,-5.6986,-5.7095,-5.7106,-5.7163,-5.7202,-5.7207,-5.7191,-5.7185,-5.7186,-5.7532,-5.7534,0,0,-5.6925,-5.697,-5.7018,-5.7032,-5.7021,-5.6984,-5.6989,-5.7101,-5.7148,-5.7203,-5.7209,-5.7194,-5.7187,-5.7188,-5.7529,-5.7532,0,0,0,-5.6924,-5.6968,-5.6965,-5.7027,-5.7039,-5.6987,-5.6993,-5.7143,-5.7138,-5.721,-5.7195,-5.7188,-5.719,-5.7527,-5.753,-5.7691,0,0,0,-5.692,-5.6966,-5.6964,-5.6992,-5.7038,-5.7092,-5.7033,-5.713,-5.7141,-5.7195,-5.7188,-5.7192,-5.7524,-5.7529,-5.7681,-5.776,0,0,0,-5.693,-5.6967,-5.6987,-5.6994,-5.7031,-5.7089,-5.709,-5.7132,-5.7133,-5.7185,-5.7192,-5.7522,-5.7528,-5.7672,-5.7745,-5.7864,0,0,0,-5.6953,-5.7129,-5.699,-5.7181,-5.703,-5.7188,-5.7089,-5.7204,-5.7267,-5.7189,-5.7524,-5.753,-5.7669,-5.7736,-5.7854,-5.7971,-5.8024,0,0,-5.72,-5.7161,-5.727,-5.7147,-5.734,-5.7172,-5.7389,-5.7405,-5.737,-5.748,-5.7488,-5.7684,-5.7744,-5.7861,-5.8306,-5.8348,0,0,0,-5.7363,-5.7442,-5.7483,-5.7545,-5.7562,-5.7583,-5.7561,-5.7568,-5.7658,-5.7435,-5.7758,-5.7792,-5.7859,-5.7913,-5.7949,-5.8004,-5.7557,-5.7556,-5.7556,-5.7777,-5.7721,-5.7898,-5.7853,-5.7915,-5.7891,-5.7936,-5.794,-5.7867,-5.7945,-5.7977,-5.8253,-5.8318,-5.8345,-5.8402,-5.8034,-5.8035,-5.8036,-5.8036,-5.8134,-5.8236,-5.8134,-5.8269,-5.821,-5.8323,-5.8308,-5.8252,-5.8349,-5.8224,-5.8281,-5.8149,-5.8393,-5.844,-5.8048,-5.8046,-5.8044,-5.8043,-5.8042,-5.8398,-5.8437,-5.8442,-5.8526,-5.8597,-5.8546,-5.8644,-5.8587,-5.8534,-5.859,-5.8617,-5.8615,-5.8604,-5.8607,-5.8608,-5.8609,-5.861,-5.8611,-5.8611,-5.8671,-5.867,-5.8758,-5.8791,-5.8824,-5.8859,-5.8838,-5.8868,-5.8888,-5.8839,-5.8839,-5.8759,-5.8427,-5.8344,-5.8626,-5.8623,-5.8621,-5.862,-5.8619,-5.9052,-5.8957,-5.9094,-5.9127,-5.916,-5.9235,-5.9161,-5.9229,-5.9246,-5.9297,-5.9204,-5.8968,-5.8924,-5.8895,-5.8826,-5.9215,-5.9215,-5.9215,-5.9215,-5.9275,-5.9247,-5.9374,-5.943,-5.9478,-5.9425,-5.9583,-5.9569,-5.9539,-5.9547,-5.9482,-5.9386,-5.9359,-5.9331,-5.9292,-5.9228,-5.971,-5.971,-5.9711,-5.9506,-5.948,-5.9625,-5.9593,-5.9615,-5.9636,-5.9783,-5.9852,-5.9799,-5.973,-5.9551,-5.953,-5.9375,-5.9328,-5.9254,-5.9196,-5.9075,0,0]},{"header":{"parameterUnit":"m.s-1","parameterCategory":1,"la1":30.2992,"la2":30.254,"lo1":-89.0895,"lo2":-89.0443,"dy":0.0025,"dx":0.0025,"nx":19,"ny":19,"refTime":"2026-03-30T09:00:00:Z","depth":0,"parameterNumber":3,"parameterNumberName":"V-component_of_WINDS"},"data":[0,0,0,0.3671,0.3672,0.3727,0.3727,0.3796,0.3797,0,0,0,0,0,0,0,0,0,0,0,0.3652,0.3652,0.3671,0.3673,0.3727,0.3727,0.3796,0.3797,0,0,0,0,0,0,0,0,0,0,0,0.3652,0.3652,0.3653,0.3673,0.3727,0.3727,0.3796,0.3756,0,0,0,0,0,0,0,0,0,0,0.3703,0.3682,0.3652,0.3653,0.3673,0.3727,0.3727,0.3754,0.3758,0.377,0,0.3778,0,0.3788,0.3801,0.3801,0,0,0,0.3675,0.3678,0.3695,0.3653,0.3673,0.3727,0.3703,0.3756,0.3761,0.3776,0.3779,0.3782,0.379,0.3801,0.3802,0.386,0.386,0,0,0.3672,0.3661,0.3692,0.3698,0.3687,0.3701,0.3705,0.3759,0.3763,0.3779,0.3783,0.3791,0.3802,0.3802,0.3859,0.386,0,0,0,0.3662,0.3658,0.3675,0.3695,0.3705,0.3703,0.3707,0.376,0.3766,0.3784,0.3791,0.3802,0.3803,0.3859,0.3859,0.3856,0,0,0,0.366,0.3652,0.3673,0.3667,0.3704,0.3733,0.3707,0.3763,0.3769,0.3791,0.3802,0.3804,0.3859,0.3859,0.3855,0.3856,0,0,0,0.365,0.3651,0.3658,0.3666,0.3689,0.3732,0.3742,0.3764,0.3773,0.3801,0.3804,0.3859,0.3859,0.3855,0.3856,0.3869,0,0,0,0.3636,0.3653,0.3658,0.368,0.3688,0.3729,0.3741,0.3772,0.3796,0.3803,0.3859,0.3859,0.3855,0.3855,0.3869,0.3879,0.3881,0,0,0.3651,0.3654,0.3669,0.3675,0.3711,0.3721,0.3759,0.3791,0.3805,0.3841,0.3843,0.3856,0.3856,0.3869,0.3899,0.3901,0,0,0,0.367,0.3681,0.3693,0.3714,0.3739,0.3762,0.379,0.3803,0.3834,0.382,0.3864,0.3864,0.3873,0.3878,0.388,0.3889,0.3861,0.3861,0.3861,0.3676,0.3693,0.3719,0.3742,0.3763,0.3794,0.3813,0.3836,0.3846,0.3856,0.3867,0.3883,0.3889,0.389,0.39,0.3873,0.3873,0.3873,0.3873,0.3701,0.3719,0.3734,0.3765,0.3784,0.381,0.3841,0.3848,0.3878,0.3876,0.3884,0.3881,0.3892,0.3901,0.3873,0.3873,0.3873,0.3873,0.3873,0.3707,0.3719,0.3734,0.3769,0.3794,0.3819,0.3847,0.3863,0.3878,0.3886,0.3901,0.3901,0.3905,0.3892,0.3892,0.3892,0.3892,0.3892,0.3892,0.3707,0.3725,0.3745,0.3775,0.3793,0.3818,0.3851,0.3869,0.3894,0.3904,0.3904,0.3915,0.3889,0.3883,0.3893,0.3893,0.3893,0.3893,0.3893,0.3728,0.3726,0.3758,0.3775,0.3814,0.384,0.3861,0.3898,0.3915,0.3929,0.394,0.3917,0.3922,0.3921,0.3916,0.3934,0.3934,0.3934,0.3934,0.3733,0.3737,0.3775,0.3803,0.3832,0.3855,0.3894,0.3921,0.3949,0.3962,0.3961,0.3956,0.3954,0.396,0.3958,0.3954,0.3982,0.3982,0.3982,0.3748,0.3756,0.3784,0.3811,0.3843,0.3871,0.3909,0.3943,0.3975,0.3984,0.3973,0.3971,0.3963,0.3959,0.3967,0.3964,0.3956,0,0]}]]